Tracking 22438 objects as of 24-Feb-2021
HD Live streaming from Space Station
objects crossing your sky now

SL-8 DEB *

Track SL-8 DEB * now!
10-day predictions


NORAD ID: 18510
Int'l Code: 1982-051F
Perigee: 717.6 km
Apogee: 739.5 km
Inclination: 74.0 °
Period: 99.2 minutes
Semi major axis: 7099 km
RCS: 0.0076 m2 (small)
Launch date: June 1, 1982
Source: Commonwealth of Independent States (former USSR) (CIS)
Launch site: PLESETSK MISSILE AND SPACE COMPLEX (PKMTR)

Note: This is SATELLITE DEBRIS
aabbcc
Your satellite tracking list
Your tracking list is empty




NASA's NSSDC Master Catalog

Two Line Element Set (TLE):
1 18510U 82051F   21055.08872694  .00000299  00000-0  82270-4 0  9991
2 18510  73.9907  87.7503 0015409 269.9926 120.1152 14.51289535807497
Source of the keplerian elements: AFSPC